Location: Aalen
(48.8330°N, 10.1000°E)
Time: 00:24:01
(UTC+02:00)

M-CUBED/EXP-1 PRIME - Pass Details

Date: 27 September 2021
Orbit: 427 x 655 km, 101.7° (Epoch: 19 October)

Event Time Altitude Azimuth Distance (km) Brightness Sun altitude
Rises 05:50:07 0° 24° (NNE) 2,420 ? -14.4°
Reaches altitude 10° 05:52:11 10° 30° (NNE) 1,537 ? -14.1°
Maximum altitude 05:55:21 49° 106° (ESE) 564 ? -13.6°
Drops below altitude 10° 05:58:30 10° 183° (S) 1,529 ? -13.1°
Sets 06:00:32 0° 189° (S) 2,406 ? -12.7°
